Home   Weather   Feldkirch   Past weeks

Flag for Austria Past Weather in Feldkirch, Vorarlberg, Austria — Yesterday and Last 2 Weeks

Now
62 °F

Cool.


Feels Like: 62 °F
Forecast: 57 / 81 °F
Wind: 1 mph from Southwest

Location: Feldkirch

Current Time: Jul 28, 2017 at 8:55:53 am

Latest Report: Jul 28, 2017 at 8:00 am


Visibility: N/A

Pressure: 29.94 "Hg

Humidity: 91%

Dew Point: 59 °F

Location of FeldkirchLocation

Past Weather in Feldkirch — Graph

°F

Feldkirch Temperature Yesterday

Maximum temperature yesterday: 71 °F (at 6:00 pm)
Minimum temperature yesterday: 54 °F (at 5:00 am)
Average temperature yesterday: 62 °F

High & Low Weather Summary for the Past Weeks

 TemperatureHumidityPressure
High87 °F (Jul 19, 4:00 pm)98% (Jul 23, 7:00 am)30.28 "Hg (Jul 23, 7:00 am)
Low52 °F (Jul 16, 5:00 am)41% (Jul 17, 6:00 pm)29.74 "Hg (Jul 21, 6:00 pm)
Average65 °F77%29.99 "Hg
* Reported Jul 13 7:00 am — Jul 28 7:00 am, Feldkirch. Weather by CustomWeather, © 2017

Note: Actual official high and low records may vary slightly from our data, if they occured in-between our weather recording intervals... More about our weather records

Advertising

Feldkirch Weather History for the Previous 24 Hours

Scroll right to see more
 ConditionsComfort  
Time TempWeatherWind HumidityBarometerVisibility
7:00 am
Fri, Jul 28
62 °FLight rain. Low clouds.1 mph86%29.92 "Hg2 mi
6:00 am62 °FCool.2 mph92%29.91 "HgN/A
5:00 am61 °FCool.1 mph96%29.92 "HgN/A
4:00 am62 °FCool.2 mph95%29.92 "HgN/A
3:00 am62 °FMild.2 mph95%29.93 "HgN/A
2:00 am64 °FMild.2 mph81%29.88 "HgN/A
1:00 am64 °FMild.2 mph82%29.87 "HgN/A
12:00 am65 °FMild.1 mph83%29.86 "HgN/A
11:00 pm
Thu, Jul 27
64 °FMild.1 mph88%29.87 "HgN/A
10:00 pm64 °FMild.1 mph89%29.86 "HgN/A
9:00 pm65 °FSprinkles. Cloudy.1 mph87%29.85 "HgN/A
8:00 pm68 °FMild.No wind77%29.83 "HgN/A
7:00 pm70 °FMild.No wind67%29.82 "HgN/A
6:00 pm71 °FMild.No wind65%29.82 "HgN/A
5:00 pm70 °FMild.No wind65%29.84 "HgN/A
4:00 pm69 °FMild.1 mph65%29.85 "HgN/A
3:00 pm67 °FMild.2 mph69%29.89 "HgN/A
2:00 pm64 °FMild.2 mph72%29.91 "HgN/A
1:00 pm62 °FFog.2 mph80%29.94 "HgN/A
12:00 pm62 °FFog.2 mph72%29.95 "HgN/A
11:00 am61 °FDrizzle. Low clouds.No wind70%29.94 "Hg3 mi
10:00 am60 °FCool.No wind70%29.95 "HgN/A
9:00 am59 °FCool.2 mph72%29.94 "HgN/A
8:00 am59 °FCool.1 mph70%29.94 "HgN/A
Weather by CustomWeather, © 2017

See weather overviewHow to use our weather pages